THOR ABLESTAR DEB, 3842

Orbit data source: Space-Track

THOR ABLESTAR DEB, 3842 is space debris in LEO originally from a launch on Thu, 29 Jun 1961 UTC launched from the Air Force Eastern Test Range (AFETR). Debris objects in space refer to the collection of defunct objects orbiting the Earth. Examples of debris include non-operational satellites, rocket bodies, and fragments generated from explosions, collisions, or faulty payload assembly.

Loading next visibility...
Identifier
3842, 1961-015JF
Orbit
LEO
Country
Flag of USUS
Related business
Manufacturer
Unknown
Mission
Spacecraft
Bus & Motor
Unknown
Mass
Unknown
Launch date (UTC)
1961-06-29 (64 years ago)
Launch vehicle
Unknown
Launch site
Air Force Eastern Test Range (AFETR)
Object type
Payload
Rocket body
Debris
Shape & HBR
Unknown shape, 0.1 m
Radar Cross Section
Small (<0.1 m²)

Expand to show TLE details & history
Last TLE update: 5 days ago

TLE from 5 days ago
0 THOR ABLESTAR DEB
1 03842U 61015JF  25336.79163484  .00000504  00000-0  59548-3 0  9994
2 03842  66.7364 128.9235 0135020 241.4301 117.3125 13.72050922208233
Epoch: 2025-12-02T18:59Z
TLE epoch observation values (Epoch: 2025-12-02T18:59:57.250Z)
Latitude
-0.00001°
Longitude
132.06325°
Altitude
1,040.987 km
Speed
7.308 km/s
True Right ascension
08h 35m 41s
True Declination
0° 00' 00"
Sunlit
Object was in daylight at epoch
Visualization orbit readout
Latitude
Unknown
Longitude
Unknown
Altitude
Unknown
Speed
Unknown
Apparent Right ascension
Unknown
Apparent Declination
Unknown
Sunlit
N/A
Visualization observer readout
Local Sidereal Time
08:17:46
Azimuth
Unknown
Elevation
Unknown
Doppler factor
Unknown
Orbital elements
Apogee altitude
1,090.125 km
Perigee altitude
891.139 km
Semi-major axis
7,368.769 km
Eccentricity
0.0135
Inclination
66.7364°
RAAN
128.9235°
Arg. of periapsis
241.4301°
True anomaly
118.67653°
Mean anomaly
117.3125°
Eccentric anomaly
117.99558°
Mean motion
3.43124 °/min
Orbital period
104.92 mins
BSTAR
0.00059548
Loading maneuver chart data...
Computing Atmospheric mass density...
Loading historical data...
Loading historical data...
Loading historical data...
Loading historical data...
Loading historical data...
Loading historical data...
Loading historical data...

Documentation

Showing up to 5 results
|